Home   Weather   Madrid   Past weeks

Flag for Spain Past Weather in Madrid, Spain — Yesterday and Last 2 Weeks

Now
48 °F

Scattered clouds.


Feels Like: 43 °F
Forecast: 34 / 64 °F
Wind: 12 mph from Northeast

Location: Madrid / Cuatro Vientos

Current Time: Apr 27, 2017 at 11:33:33 am

Latest Report: Apr 27, 2017 at 11:00 am


Visibility: N/A

Pressure: 29.92 "Hg (27.63 "Hg at 658m altitude)

Humidity: 43%

Dew Point: 27 °F

Location of MadridLocation

Past Weather in Madrid — Graph

°F

Madrid Temperature Yesterday

Maximum temperature yesterday: 68 °F (at 3:30 pm)
Minimum temperature yesterday: 48 °F (at 7:00 am)
Average temperature yesterday: 60 °F

High & Low Weather Summary for the Past Weeks

 TemperatureHumidityPressure
High82 °F (Apr 12, 4:30 pm)94% (Apr 20, 7:00 am)30.30 "Hg (Apr 20, 7:00 am)
Low39 °F (Apr 27, 7:00 am)12% (Apr 21, 5:00 pm)29.71 "Hg (Apr 25, 5:30 pm)
Average67 °F35%30.05 "Hg
* Reported Apr 12 10:00 am — Apr 27 10:00 am, Madrid, Weather by CustomWeather, © 2017

Note: Actual official high and low records may vary slightly from our data, if they occured in-between our weather recording intervals... More about our weather records

Advertising

Madrid Weather History for the Previous 24 Hours

Scroll right to see more
 ConditionsComfort  
Time TempWeatherWind HumidityBarometerVisibility
10:00 am
Thu, Apr 27
45 °FBroken clouds.9 mph49%29.92 "HgN/A
9:30 am41 °FBroken clouds.8 mph61%29.92 "HgN/A
9:00 am41 °FBroken clouds.10 mph61%29.92 "HgN/A
8:30 am41 °FBroken clouds.9 mph57%29.89 "HgN/A
8:00 am39 °FBroken clouds.10 mph65%29.89 "HgN/A
7:30 am39 °FBroken clouds.8 mph65%29.86 "HgN/A
7:00 am39 °FPassing clouds.10 mph70%29.86 "HgN/A
10:00 pm
Wed, Apr 26
52 °FPassing clouds.9 mph58%29.80 "HgN/A
9:30 pm55 °FPassing clouds.10 mph55%29.77 "HgN/A
8:30 pm59 °FPassing clouds.7 mph36%29.77 "HgN/A
8:00 pm61 °FPassing clouds.7 mph34%29.74 "HgN/A
7:30 pm61 °FPassing clouds.14 mph36%29.74 "HgN/A
7:00 pm63 °FPassing clouds.9 mph34%29.74 "HgN/A
6:30 pm68 °FPassing clouds.5 mph30%29.74 "HgN/A
6:00 pm68 °FPassing clouds.8 mph30%29.74 "HgN/A
5:30 pm66 °FPassing clouds.2 mph30%29.74 "HgN/A
5:00 pm64 °FPassing clouds.7 mph32%29.74 "HgN/A
4:30 pm64 °FPassing clouds.8 mph32%29.74 "HgN/A
4:00 pm66 °FPassing clouds.9 mph30%29.74 "HgN/A
3:30 pm68 °FPassing clouds.9 mph28%29.77 "HgN/A
3:00 pm66 °FPassing clouds.10 mph30%29.77 "HgN/A
2:00 pm66 °FPassing clouds.10 mph32%29.77 "HgN/A
1:30 pm63 °FPassing clouds.9 mph34%29.77 "HgN/A
1:00 pm64 °FScattered clouds.9 mph34%29.77 "HgN/A
12:30 pm64 °FScattered clouds.6 mph37%29.77 "HgN/A
11:30 am63 °FPassing clouds.5 mph45%29.77 "HgN/A
11:00 am61 °FPassing clouds.7 mph45%29.77 "HgN/A
Weather by CustomWeather, © 2017

See weather overviewHow to use our weather pages